{"data":{"norad_id":40137,"intl_designator":"2014-051B","name":"CHUANGXIN 1-04 (CX-1-04)","alt_names":[],"object_type":"PAYLOAD","status":"ACTIVE","operator":null,"country":"PRC","launch_date":"2014-09-04","launch_site_code":"JSC","launch_vehicle":null,"mission":null,"orbit_class":"UNKNOWN","rcs_meters":0.5749,"size_class":null,"mass_kg":null,"dimensions":null,"purposes":[],"wikipedia_slug":null,"has_3d_model":false,"image_url":null,"decayed_at":null,"tle_current":{"epoch":"2026-09-20T05:18:41.756832Z","epoch_age_seconds":61364,"freshness":"FRESH","line1":"1 40137U 14051B   26263.22131663 -.00000055  00000+0 -39700-5 0  9994","line2":"2 40137  98.7121 265.1786 0021096 255.5972 104.2869 14.30427159628139","mean_motion":14.30427159,"eccentricity":0.0021096,"inclination_deg":98.7121,"raan_deg":265.1786,"arg_perigee_deg":255.5972,"mean_anomaly_deg":104.2869,"bstar":-3.97e-6,"rev_number":62813,"period_min":100.66922953327,"perigee_km":775.18081976974,"apogee_km":805.42590334322,"semimajor_km":7168.4403615565,"source":"CELESTRAK","updated_at":"2026-09-20T09:00:14.022434Z"}}}